FW7476 Weather Reports


Display with metric or nautical units.
time (UTC)temp
F
wind
direction
speed
MPH
gust
MPH
rain 1hr
in
rain 24hr
in
rain mn
in
humidity
%
barometer
mb
20210614143112 59 360 1.0 3.0 0.00 0.03 0.03 76 1012.3
20210614141628 60 360 0.0 4.0 0.00 0.03 0.03 79 1012.3
20210614140214 60 0 0.0 3.0 0.00 0.03 0.03 79 1012.1
20210614134708 60 0 0.0 4.0 0.00 0.03 0.03 79 1012.2
20210614133145 59 0 0.0 3.0 0.00 0.03 0.03 80 1012.1
20210614131724 59 0 0.0 1.0 0.00 0.03 0.03 79 1011.7
20210614130228 59 0 0.0 1.0 0.01 0.03 0.03 80 1011.7
20210614124749 58 0 0.0 2.0 0.03 0.03 0.03 80 1011.9
20210614123120 58 0 1.0 2.0 0.03 0.03 0.03 79 1011.6
20210614121700 57 0 0.0 2.0 0.03 0.03 0.03 79 1011.7
20210614120304 57 0 0.0 2.0 0.01 0.01 0.01 79 1011.6
20210614114616 56 0 0.0 1.0 0.00 0.00 0.00 79 1011.6
20210614113116 56 360 0.0 0.0 0.00 0.00 0.00 78 1011.9
20210614111609 56 360 0.0 2.0 0.00 0.00 0.00 78 1012.1
20210614110146 55 0 0.0 3.0 0.00 0.00 0.00 78 1012.5
20210614104630 55 360 0.0 1.0 0.00 0.00 0.00 79 1012.2
20210614103138 54 0 0.0 2.0 0.00 0.00 0.00 79 1012.3
20210614101615 53 0 0.0 2.0 0.00 0.00 0.00 79 1012.2
20210614100117 53 0 0.0 1.0 0.00 0.00 0.00 78 1012.3
20210614094633 52 360 0.0 2.0 0.00 0.00 0.00 75 1012.3
20210614093120 52 0 0.0 1.0 0.00 0.00 0.00 75 1012.0
20210614091613 52 0 0.0 1.0 0.00 0.00 0.00 74 1011.9
20210614090111 52 0 0.0 1.0 0.00 0.00 0.00 74 1011.6
20210614084640 52 0 0.0 1.0 0.00 0.00 0.00 72 1011.7
20210614083114 52 0 0.0 1.0 0.00 0.00 0.00 72 1011.6
20210614081706 52 360 0.0 3.0 0.00 0.00 0.00 71 1011.5
20210614080215 52 0 0.0 1.0 0.00 0.00 0.00 69 1011.3
20210614074720 52 0 0.0 0.0 0.00 0.00 0.00 69 1011.3
20210614073129 52 0 0.0 1.0 0.00 0.00 0.00 69 1011.4
20210614071623 52 0 0.0 0.0 0.00 0.00 0.00 69 1011.3
20210614070147 52 0 0.0 0.0 0.00 0.00 0.00 68 1011.2
20210614064635 53 0 0.0 1.0 0.00 0.00 0.00 68 1011.3
20210614063148 53 0 0.0 1.0 0.00 0.00 0.00 68 1011.4
20210614061649 53 0 0.0 0.0 0.00 0.00 0.00 68 1010.9
20210614060207 54 0 0.0 0.0 0.00 0.00 0.00 68 1011.0
20210614054839 54 0 0.0 1.0 0.00 0.00 0.00 68 1011.0
20210614053145 54 0 0.0 0.0 0.00 0.00 0.00 68 1011.1
20210614051653 54 0 0.0 1.0 0.00 0.00 0.00 68 1011.1
20210614050147 55 0 0.0 1.0 0.00 0.00 0.00 68 1011.1
20210614044624 55 0 0.0 0.0 0.00 0.00 0.00 68 1010.9
20210614043148 55 0 0.0 0.0 0.00 0.00 0.00 69 1011.0
20210614041612 56 0 0.0 0.0 0.00 0.00 0.00 68 1011.0
20210614040054 56 0 0.0 0.0 0.00 0.00 0.00 68 1011.1
20210614034627 57 0 0.0 0.0 0.00 0.00 0.00 67 1011.1
20210614033254 57 0 0.0 0.0 0.00 0.00 0.00 66 1011.3
20210614031634 58 0 0.0 1.0 0.00 0.00 0.00 66 1011.4
20210614030117 59 0 0.0 1.0 0.00 0.00 0.00 64 1011.6
20210614024558 59 0 0.0 1.0 0.00 0.00 0.00 63 1011.4
20210614023107 60 0 0.0 1.0 0.00 0.00 0.00 63 1011.2
20210614021647 61 0 0.0 0.0 0.00 0.00 0.00 61 1011.0
20210614020228 61 0 0.0 0.0 0.00 0.00 0.00 59 1010.9
20210614014620 62 0 0.0 1.0 0.00 0.00 0.00 58 1010.9
20210614013115 63 0 0.0 1.0 0.00 0.00 0.00 55 1010.7
20210614011632 64 0 0.0 1.0 0.00 0.00 0.00 55 1010.5
20210614010209 65 0 0.0 1.0 0.00 0.00 0.00 53 1010.4
20210614004638 67 0 0.0 1.0 0.00 0.00 0.00 52 1010.3
20210614003147 68 0 0.0 2.0 0.00 0.00 0.00 49 1010.2
20210614001722 70 0 0.0 2.0 0.00 0.00 0.00 46 1010.2
20210614000201 71 0 0.0 0.0 0.00 0.00 0.00 40 1010.0
20210613234609 72 0 0.0 1.0 0.00 0.00 0.00 42 1009.9
20210613233159 73 0 0.0 1.0 0.00 0.00 0.00 38 1009.8
20210613231644 74 329 0.0 1.0 0.00 0.00 0.00 39 1009.9
20210613230125 75 329 0.0 2.0 0.00 0.00 0.00 39 1009.9
20210613224614 75 0 0.0 1.0 0.00 0.00 0.00 31 1009.9
20210613223129 76 0 0.0 4.0 0.00 0.00 0.00 29 1009.9
20210613221555 76 0 0.0 2.0 0.00 0.00 0.00 30 1009.9
20210613220215 76 0 0.0 4.0 0.00 0.00 0.00 28 1009.9
20210613214632 76 0 1.0 4.0 0.00 0.00 0.00 28 1010.0
20210613213137 77 310 0.0 3.0 0.00 0.00 0.00 29 1010.0
20210613211625 77 309 1.0 5.0 0.00 0.00 0.00 27 1010.1
20210613210128 77 113 1.0 4.0 0.00 0.00 0.00 25 1010.0
20210613204633 77 63 0.0 4.0 0.00 0.00 0.00 25 1010.2
20210613203108 78 304 2.0 9.0 0.00 0.00 0.00 23 1010.2
20210613201733 78 309 1.0 4.0 0.00 0.00 0.00 19 1010.4
20210613200213 79 316 2.0 12.0 0.00 0.00 0.00 19 1010.5
20210613194641 79 318 1.0 5.0 0.00 0.00 0.00 23 1010.4
20210613193048 79 309 2.0 4.0 0.00 0.00 0.00 18 1010.6
20210613191638 81 289 3.0 8.0 0.00 0.00 0.00 17 1010.6
20210613190106 81 40 1.0 5.0 0.00 0.00 0.00 14 1010.7
20210613184703 81 0 1.0 7.0 0.00 0.00 0.00 25 1010.7
20210613183116 81 308 1.0 8.0 0.00 0.00 0.00 23 1010.8
20210613181656 80 273 3.0 10.0 0.00 0.00 0.00 18 1010.9
20210613180133 78 90 2.0 6.0 0.00 0.00 0.00 19 1011.2
20210613174654 78 309 1.0 3.0 0.00 0.00 0.00 20 1011.2
20210613173149 78 298 1.0 5.0 0.00 0.00 0.00 21 1011.4
20210613171616 79 302 2.0 7.0 0.00 0.00 0.00 19 1011.4
20210613170315 81 70 2.0 5.0 0.00 0.00 0.00 24 1011.4
20210613164627 80 285 2.0 7.0 0.00 0.00 0.00 19 1011.5
20210613163110 79 352 0.0 4.0 0.00 0.00 0.00 29 1011.5
20210613161606 79 301 1.0 7.0 0.00 0.00 0.00 19 1011.7
20210613160111 78 309 3.0 8.0 0.00 0.00 0.00 21 1011.7
20210613154624 79 265 2.0 9.0 0.00 0.00 0.00 26 1011.7
20210613153146 78 0 2.0 8.0 0.00 0.00 0.00 28 1011.7
20210613151657 76 271 1.0 4.0 0.00 0.00 0.00 33 1011.9
20210613150136 77 312 2.0 8.0 0.00 0.00 0.00 36 1012.0
20210613144626 76 309 1.0 6.0 0.00 0.00 0.00 38 1012.0